Time,TemperatureF,DewpointF,PressureIn,WindDirection,WindDirectionDegrees,WindSpeedMPH,WindSpeedGustMPH,Humidity,HourlyPrecipIn,Conditions,Clouds,dailyrainin,SoftwareType,DateUTC
2013-12-25 00:07:00,49.0,44.0,30.08,NW,315,0.0,-999.0,83,-99.99,,,0.00,weatherlink.com 1.10,2013-12-25 08:07:00,
2013-12-25 00:22:00,48.9,44.0,30.08,NW,315,0.0,-999.0,83,-99.99,,,0.00,weatherlink.com 1.10,2013-12-25 08:22:00,
2013-12-25 00:37:00,48.6,44.0,30.08,NW,315,0.0,-999.0,83,-99.99,,,0.00,weatherlink.com 1.10,2013-12-25 08:37:00,
2013-12-25 00:52:00,48.6,44.0,30.08,NW,315,0.0,-999.0,83,-99.99,,,0.00,weatherlink.com 1.10,2013-12-25 08:52:00,
2013-12-25 01:07:00,48.5,43.0,30.08,East,95,1.0,-999.0,82,-99.99,,,0.00,weatherlink.com 1.10,2013-12-25 09:07:00,
2013-12-25 01:22:00,49.2,43.0,30.08,NNE,25,0.0,-999.0,80,-99.99,,,0.00,weatherlink.com 1.10,2013-12-25 09:22:00,
2013-12-25 01:37:00,49.7,43.0,30.07,NE,37,2.0,-999.0,79,-99.99,,,0.00,weatherlink.com 1.10,2013-12-25 09:37:00,
2013-12-25 01:52:00,51.0,43.0,30.08,NNE,24,1.0,-999.0,74,-99.99,,,0.00,weatherlink.com 1.10,2013-12-25 09:52:00,
2013-12-25 02:07:00,51.3,42.0,30.08,NE,35,0.0,-999.0,71,-99.99,,,0.00,weatherlink.com 1.10,2013-12-25 10:07:00,
2013-12-25 02:22:00,50.7,41.0,30.07,NE,39,1.0,-999.0,70,-99.99,,,0.00,weatherlink.com 1.10,2013-12-25 10:22:00,
2013-12-25 02:37:00,50.5,41.0,30.08,NNE,19,2.0,-999.0,69,-99.99,,,0.00,weatherlink.com 1.10,2013-12-25 10:37:00,
2013-12-25 02:52:00,50.4,41.0,30.07,NNE,19,0.0,-999.0,69,-99.99,,,0.00,weatherlink.com 1.10,2013-12-25 10:52:00,
2013-12-25 03:07:00,50.5,40.0,30.07,North,355,2.0,-999.0,68,-99.99,,,0.00,weatherlink.com 1.10,2013-12-25 11:07:00,
2013-12-25 03:22:00,50.8,40.0,30.07,NNE,19,0.0,-999.0,66,-99.99,,,0.00,weatherlink.com 1.10,2013-12-25 11:22:00,
2013-12-25 03:37:00,50.2,40.0,30.07,NNE,19,0.0,-999.0,67,-99.99,,,0.00,weatherlink.com 1.10,2013-12-25 11:37:00,
2013-12-25 03:52:00,48.8,39.0,30.07,NNE,19,2.0,-999.0,69,-99.99,,,0.00,weatherlink.com 1.10,2013-12-25 11:52:00,
2013-12-25 04:07:00,48.2,39.0,30.07,North,9,0.0,-999.0,70,-99.99,,,0.00,weatherlink.com 1.10,2013-12-25 12:07:00,
2013-12-25 04:22:00,47.6,38.0,30.07,North,9,0.0,-999.0,70,-99.99,,,0.00,weatherlink.com 1.10,2013-12-25 12:22:00,
2013-12-25 04:37:00,47.1,38.0,30.06,North,10,0.0,-999.0,71,-99.99,,,0.00,weatherlink.com 1.10,2013-12-25 12:37:00,
2013-12-25 04:52:00,46.4,38.0,30.07,North,10,0.0,-999.0,72,-99.99,,,0.00,weatherlink.com 1.10,2013-12-25 12:52:00,
2013-12-25 05:07:00,45.6,37.0,30.07,North,10,0.0,-999.0,73,-99.99,,,0.00,weatherlink.com 1.10,2013-12-25 13:07:00,
2013-12-25 05:22:00,45.1,37.0,30.07,North,10,0.0,-999.0,74,-99.99,,,0.00,weatherlink.com 1.10,2013-12-25 13:22:00,
2013-12-25 05:37:00,45.2,38.0,30.07,North,10,0.0,-999.0,75,-99.99,,,0.00,weatherlink.com 1.10,2013-12-25 13:37:00,
2013-12-25 05:52:00,45.0,38.0,30.07,North,10,0.0,-999.0,75,-99.99,,,0.00,weatherlink.com 1.10,2013-12-25 13:52:00,
2013-12-25 06:07:00,44.8,38.0,30.08,North,10,0.0,-999.0,76,-99.99,,,0.00,weatherlink.com 1.10,2013-12-25 14:07:00,
2013-12-25 06:22:00,44.6,37.0,30.08,North,10,0.0,-999.0,76,-99.99,,,0.00,weatherlink.com 1.10,2013-12-25 14:22:00,
2013-12-25 06:37:00,44.6,38.0,30.08,North,10,0.0,-999.0,77,-99.99,,,0.00,weatherlink.com 1.10,2013-12-25 14:37:00,
2013-12-25 06:52:00,44.0,37.0,30.09,North,10,0.0,-999.0,77,-99.99,,,0.00,weatherlink.com 1.10,2013-12-25 14:52:00,
2013-12-25 07:07:00,43.8,37.0,30.09,North,10,0.0,-999.0,78,-99.99,,,0.00,weatherlink.com 1.10,2013-12-25 15:07:00,
2013-12-25 07:22:00,44.7,38.0,30.09,North,10,0.0,-999.0,78,-99.99,,,0.00,weatherlink.com 1.10,2013-12-25 15:22:00,
2013-12-25 07:37:00,45.9,39.0,30.09,North,10,0.0,-999.0,76,-99.99,,,0.00,weatherlink.com 1.10,2013-12-25 15:37:00,
2013-12-25 07:53:00,49.0,41.0,30.09,North,10,0.0,-999.0,73,-99.99,,,0.00,weatherlink.com 1.10,2013-12-25 15:53:00,
2013-12-25 08:08:00,52.3,42.0,30.09,North,10,1.0,-999.0,67,-99.99,,,0.00,weatherlink.com 1.10,2013-12-25 16:08:00,
2013-12-25 08:23:00,54.1,42.0,30.09,North,10,0.0,-999.0,64,-99.99,,,0.00,weatherlink.com 1.10,2013-12-25 16:23:00,
2013-12-25 08:38:00,56.7,42.0,30.10,North,10,0.0,-999.0,59,-99.99,,,0.00,weatherlink.com 1.10,2013-12-25 16:38:00,
2013-12-25 08:53:00,59.2,42.0,30.10,North,10,1.0,-999.0,54,-99.99,,,0.00,weatherlink.com 1.10,2013-12-25 16:53:00,
2013-12-25 09:08:00,61.2,43.0,30.11,North,10,2.0,-999.0,51,-99.99,,,0.00,weatherlink.com 1.10,2013-12-25 17:08:00,
2013-12-25 09:23:00,64.9,44.0,30.11,North,9,0.0,-999.0,47,-99.99,,,0.00,weatherlink.com 1.10,2013-12-25 17:23:00,
2013-12-25 09:38:00,65.7,43.0,30.11,NE,49,3.0,-999.0,44,-99.99,,,0.00,weatherlink.com 1.10,2013-12-25 17:38:00,
2013-12-25 09:53:00,68.1,43.0,30.11,NNE,30,0.0,-999.0,40,-99.99,,,0.00,weatherlink.com 1.10,2013-12-25 17:53:00,
2013-12-25 10:08:00,70.1,41.0,30.11,ENE,63,1.0,-999.0,35,-99.99,,,0.00,weatherlink.com 1.10,2013-12-25 18:08:00,
2013-12-25 10:23:00,73.0,41.0,30.11,NE,42,2.0,-999.0,32,-99.99,,,0.00,weatherlink.com 1.10,2013-12-25 18:23:00,
2013-12-25 10:38:00,74.5,39.0,30.11,NE,42,0.0,-999.0,28,-99.99,,,0.00,weatherlink.com 1.10,2013-12-25 18:38:00,
2013-12-25 10:53:00,76.6,39.0,30.10,NE,42,0.0,-999.0,26,-99.99,,,0.00,weatherlink.com 1.10,2013-12-25 18:53:00,
2013-12-25 11:08:00,77.6,33.0,30.09,NNE,24,0.0,-999.0,20,-99.99,,,0.00,weatherlink.com 1.10,2013-12-25 19:08:00,
2013-12-25 11:23:00,79.2,33.0,30.08,NE,40,3.0,-999.0,19,-99.99,,,0.00,weatherlink.com 1.10,2013-12-25 19:23:00,
2013-12-25 11:38:00,80.0,35.0,30.07,NNE,32,3.0,-999.0,20,-99.99,,,0.00,weatherlink.com 1.10,2013-12-25 19:38:00,
2013-12-25 11:53:00,81.3,32.0,30.06,East,94,0.0,-999.0,17,-99.99,,,0.00,weatherlink.com 1.10,2013-12-25 19:53:00,
2013-12-25 12:24:00,81.5,31.0,30.04,East,86,0.0,-999.0,16,-99.99,,,0.00,weatherlink.com 1.10,2013-12-25 20:24:00,
2013-12-25 12:39:00,82.5,33.0,30.03,East,86,3.0,-999.0,17,-99.99,,,0.00,weatherlink.com 1.10,2013-12-25 20:39:00,
2013-12-25 12:54:00,82.3,33.0,30.03,NE,40,4.0,-999.0,17,-99.99,,,0.00,weatherlink.com 1.10,2013-12-25 20:54:00,
2013-12-25 13:09:00,82.9,34.0,30.03,NNE,26,0.0,-999.0,17,-99.99,,,0.00,weatherlink.com 1.10,2013-12-25 21:09:00,
2013-12-25 13:24:00,83.4,34.0,30.02,East,80,2.0,-999.0,17,-99.99,,,0.00,weatherlink.com 1.10,2013-12-25 21:24:00,
2013-12-25 13:39:00,83.8,31.0,30.02,SE,140,0.0,-999.0,15,-99.99,,,0.00,weatherlink.com 1.10,2013-12-25 21:39:00,
2013-12-25 13:54:00,83.6,33.0,30.02,SE,143,1.0,-999.0,16,-99.99,,,0.00,weatherlink.com 1.10,2013-12-25 21:54:00,
2013-12-25 14:09:00,83.3,26.0,30.02,SSE,159,3.0,-999.0,12,-99.99,,,0.00,weatherlink.com 1.10,2013-12-25 22:09:00,
2013-12-25 14:24:00,83.3,26.0,30.02,East,98,0.0,-999.0,12,-99.99,,,0.00,weatherlink.com 1.10,2013-12-25 22:24:00,
2013-12-25 14:39:00,83.9,24.0,30.02,ESE,108,4.0,-999.0,11,-99.99,,,0.00,weatherlink.com 1.10,2013-12-25 22:39:00,
2013-12-25 14:54:00,83.9,22.0,30.02,SE,125,0.0,-999.0,10,-99.99,,,0.00,weatherlink.com 1.10,2013-12-25 22:54:00,
2013-12-25 15:09:00,84.3,24.0,30.02,SE,128,0.0,-999.0,11,-99.99,,,0.00,weatherlink.com 1.10,2013-12-25 23:09:00,
2013-12-25 15:24:00,82.9,23.0,30.02,ESE,119,0.0,-999.0,11,-99.99,,,0.00,weatherlink.com 1.10,2013-12-25 23:24:00,
2013-12-25 15:39:00,82.4,23.0,30.02,SSE,149,2.0,-999.0,11,-99.99,,,0.00,weatherlink.com 1.10,2013-12-25 23:39:00,
2013-12-25 15:54:00,81.8,24.0,30.02,SSE,153,0.0,-999.0,12,-99.99,,,0.00,weatherlink.com 1.10,2013-12-25 23:54:00,
2013-12-25 16:09:00,79.3,24.0,30.02,South,175,0.0,-999.0,13,-99.99,,,0.00,weatherlink.com 1.10,2013-12-26 00:09:00,
2013-12-25 16:24:00,77.7,25.0,30.02,SSE,150,0.0,-999.0,14,-99.99,,,0.00,weatherlink.com 1.10,2013-12-26 00:24:00,
2013-12-25 16:39:00,74.9,29.0,30.02,SSE,150,0.0,-999.0,18,-99.99,,,0.00,weatherlink.com 1.10,2013-12-26 00:39:00,
2013-12-25 16:54:00,71.9,32.0,30.02,SSE,150,0.0,-999.0,23,-99.99,,,0.00,weatherlink.com 1.10,2013-12-26 00:54:00,
2013-12-25 17:09:00,69.4,32.0,30.02,SSE,150,0.0,-999.0,25,-99.99,,,0.00,weatherlink.com 1.10,2013-12-26 01:09:00,
2013-12-25 17:24:00,67.5,32.0,30.03,SSE,150,0.0,-999.0,27,-99.99,,,0.00,weatherlink.com 1.10,2013-12-26 01:24:00,
2013-12-25 17:39:00,66.3,32.0,30.03,SSE,150,0.0,-999.0,28,-99.99,,,0.00,weatherlink.com 1.10,2013-12-26 01:39:00,
2013-12-25 17:54:00,64.6,33.0,30.03,SSE,150,0.0,-999.0,31,-99.99,,,0.00,weatherlink.com 1.10,2013-12-26 01:54:00,
2013-12-25 18:09:00,63.1,33.0,30.03,SSE,150,0.0,-999.0,33,-99.99,,,0.00,weatherlink.com 1.10,2013-12-26 02:09:00,
2013-12-25 18:24:00,62.2,34.0,30.04,SSE,150,0.0,-999.0,35,-99.99,,,0.00,weatherlink.com 1.10,2013-12-26 02:24:00,
2013-12-25 18:39:00,61.4,34.0,30.03,SSE,150,0.0,-999.0,36,-99.99,,,0.00,weatherlink.com 1.10,2013-12-26 02:39:00,
2013-12-25 18:54:00,60.0,33.0,30.04,SSE,150,0.0,-999.0,36,-99.99,,,0.00,weatherlink.com 1.10,2013-12-26 02:54:00,
2013-12-25 19:09:00,59.3,33.0,30.05,SSE,150,0.0,-999.0,37,-99.99,,,0.00,weatherlink.com 1.10,2013-12-26 03:09:00,
2013-12-25 19:24:00,58.5,33.0,30.05,SSE,150,0.0,-999.0,39,-99.99,,,0.00,weatherlink.com 1.10,2013-12-26 03:24:00,
2013-12-25 19:39:00,57.5,34.0,30.05,SSE,150,0.0,-999.0,42,-99.99,,,0.00,weatherlink.com 1.10,2013-12-26 03:39:00,
2013-12-25 19:54:00,56.9,34.0,30.05,SSE,150,0.0,-999.0,42,-99.99,,,0.00,weatherlink.com 1.10,2013-12-26 03:54:00,
2013-12-25 20:09:00,57.6,30.0,30.05,ESE,117,3.0,-999.0,35,-99.99,,,0.00,weatherlink.com 1.10,2013-12-26 04:09:00,
2013-12-25 20:24:00,59.0,27.0,30.05,ESE,117,0.0,-999.0,30,-99.99,,,0.00,weatherlink.com 1.10,2013-12-26 04:24:00,
2013-12-25 20:39:00,58.4,28.0,30.05,ESE,117,0.0,-999.0,31,-99.99,,,0.00,weatherlink.com 1.10,2013-12-26 04:39:00,
2013-12-25 20:54:00,57.5,30.0,30.06,ESE,117,0.0,-999.0,35,-99.99,,,0.00,weatherlink.com 1.10,2013-12-26 04:54:00,
2013-12-25 21:09:00,56.2,31.0,30.06,ESE,117,0.0,-999.0,38,-99.99,,,0.00,weatherlink.com 1.10,2013-12-26 05:09:00,
2013-12-25 21:24:00,54.7,31.0,30.06,ESE,117,0.0,-999.0,41,-99.99,,,0.00,weatherlink.com 1.10,2013-12-26 05:24:00,
2013-12-25 21:39:00,53.7,33.0,30.06,ESE,117,0.0,-999.0,45,-99.99,,,0.00,weatherlink.com 1.10,2013-12-26 05:39:00,
2013-12-25 21:54:00,53.0,34.0,30.06,ESE,117,0.0,-999.0,48,-99.99,,,0.00,weatherlink.com 1.10,2013-12-26 05:54:00,
2013-12-25 22:09:00,52.6,34.0,30.06,ESE,117,0.0,-999.0,50,-99.99,,,0.00,weatherlink.com 1.10,2013-12-26 06:09:00,
2013-12-25 22:24:00,52.4,35.0,30.06,ESE,117,0.0,-999.0,51,-99.99,,,0.00,weatherlink.com 1.10,2013-12-26 06:24:00,
2013-12-25 22:39:00,52.0,35.0,30.06,ESE,117,0.0,-999.0,52,-99.99,,,0.00,weatherlink.com 1.10,2013-12-26 06:39:00,
2013-12-25 22:54:00,51.1,35.0,30.06,ESE,117,0.0,-999.0,55,-99.99,,,0.00,weatherlink.com 1.10,2013-12-26 06:54:00,
2013-12-25 23:09:00,50.4,35.0,30.06,ESE,117,0.0,-999.0,57,-99.99,,,0.00,weatherlink.com 1.10,2013-12-26 07:09:00,
2013-12-25 23:24:00,49.9,35.0,30.06,ESE,117,0.0,-999.0,57,-99.99,,,0.00,weatherlink.com 1.10,2013-12-26 07:24:00,
2013-12-25 23:39:00,49.7,35.0,30.06,ESE,117,0.0,-999.0,57,-99.99,,,0.00,weatherlink.com 1.10,2013-12-26 07:39:00,
2013-12-25 23:54:00,49.3,34.0,30.06,ESE,117,0.0,-999.0,56,-99.99,,,0.00,weatherlink.com 1.10,2013-12-26 07:54:00,